Time,TemperatureF,DewpointF,PressureIn,WindDirection,WindDirectionDegrees,WindSpeedMPH,WindSpeedGustMPH,Humidity,HourlyPrecipIn,Conditions,Clouds,dailyrainin,SoftwareType,DateUTC
2013-02-05 00:01:00,55.9,53.9,29.92,ESE,122,2.0,5.0,93,0.00,,SKC,0.00,VWS V14.00,2013-02-05 06:01:00,
2013-02-05 00:06:00,55.8,53.8,29.92,ESE,122,0.0,2.0,93,0.00,,SKC,0.00,VWS V14.00,2013-02-05 06:06:00,
2013-02-05 00:11:00,55.8,53.8,29.92,ESE,122,2.0,4.0,93,0.00,,SKC,0.00,VWS V14.00,2013-02-05 06:11:00,
2013-02-05 00:16:00,55.8,54.1,29.92,ESE,122,1.0,4.0,94,0.00,,SKC,0.00,VWS V14.00,2013-02-05 06:16:00,
2013-02-05 00:21:00,55.9,54.2,29.92,ESE,122,0.0,4.0,94,0.00,,SKC,0.00,VWS V14.00,2013-02-05 06:21:00,
2013-02-05 00:26:00,56.0,54.3,29.92,ESE,122,4.0,4.0,94,0.00,,SKC,0.00,VWS V14.00,2013-02-05 06:26:00,
2013-02-05 00:31:00,56.2,54.5,29.92,ESE,122,0.0,4.0,94,0.00,,SKC,0.00,VWS V14.00,2013-02-05 06:31:00,
2013-02-05 00:36:00,56.4,55.0,29.91,ESE,122,1.0,4.0,95,0.00,,SKC,0.00,VWS V14.00,2013-02-05 06:36:00,
2013-02-05 00:41:00,56.4,55.0,29.92,ESE,122,2.0,5.0,95,0.00,,SKC,0.00,VWS V14.00,2013-02-05 06:41:00,
2013-02-05 00:46:00,56.6,55.2,29.92,ESE,122,1.0,5.0,95,0.00,,SKC,0.00,VWS V14.00,2013-02-05 06:46:00,
2013-02-05 00:51:00,56.7,55.3,29.92,ESE,122,0.0,5.0,95,0.00,,SKC,0.00,VWS V14.00,2013-02-05 06:51:00,
2013-02-05 00:56:00,56.8,55.4,29.93,ESE,122,1.0,5.0,95,0.00,,SKC,0.00,VWS V14.00,2013-02-05 06:56:00,
2013-02-05 01:01:00,56.9,55.5,29.93,ESE,122,4.0,5.0,95,0.00,,SKC,0.00,VWS V14.00,2013-02-05 07:01:00,
2013-02-05 01:06:00,56.8,55.4,29.93,ESE,122,1.0,5.0,95,0.00,,SKC,0.00,VWS V14.00,2013-02-05 07:06:00,
2013-02-05 01:11:00,56.8,55.4,29.92,ESE,122,0.0,5.0,95,0.00,,SKC,0.00,VWS V14.00,2013-02-05 07:11:00,
2013-02-05 01:16:00,56.8,55.4,29.93,ESE,122,0.0,5.0,95,0.00,,SKC,0.00,VWS V14.00,2013-02-05 07:16:00,
2013-02-05 01:21:00,56.8,55.4,29.93,ESE,122,0.0,5.0,95,0.00,,SKC,0.00,VWS V14.00,2013-02-05 07:21:00,
2013-02-05 01:26:00,56.8,55.4,29.93,ESE,122,0.0,5.0,95,0.00,,SKC,0.00,VWS V14.00,2013-02-05 07:26:00,
2013-02-05 01:31:00,56.8,55.4,29.93,ESE,122,0.0,5.0,95,0.01,,SKC,0.01,VWS V14.00,2013-02-05 07:31:00,
2013-02-05 01:36:00,56.9,55.5,29.93,ESE,122,0.0,5.0,95,0.02,,SKC,0.02,VWS V14.00,2013-02-05 07:36:00,
2013-02-05 01:41:00,56.8,55.4,29.93,ESE,122,0.0,5.0,95,0.02,,SKC,0.02,VWS V14.00,2013-02-05 07:41:00,
2013-02-05 01:46:00,56.8,55.4,29.92,ESE,122,0.0,5.0,95,0.04,,SKC,0.04,VWS V14.00,2013-02-05 07:46:00,
2013-02-05 01:51:00,56.7,55.6,29.92,ESE,122,0.0,5.0,96,0.04,,SKC,0.04,VWS V14.00,2013-02-05 07:51:00,
2013-02-05 01:56:00,56.8,55.7,29.92,ESE,122,1.0,5.0,96,0.04,,SKC,0.04,VWS V14.00,2013-02-05 07:56:00,
2013-02-05 02:01:00,56.8,55.7,29.92,ESE,122,5.0,6.0,96,0.04,,SKC,0.04,VWS V14.00,2013-02-05 08:01:00,
2013-02-05 02:06:00,56.9,55.8,29.91,ESE,123,5.0,7.0,96,0.05,,SKC,0.05,VWS V14.00,2013-02-05 08:06:00,
2013-02-05 02:11:00,56.9,55.8,29.91,SE,145,6.0,7.0,96,0.05,,SKC,0.05,VWS V14.00,2013-02-05 08:11:00,
2013-02-05 02:16:00,56.9,55.8,29.91,SSE,147,5.0,7.0,96,0.05,,SKC,0.05,VWS V14.00,2013-02-05 08:16:00,
2013-02-05 02:21:00,56.9,55.8,29.91,SSE,148,5.0,7.0,96,0.05,,SKC,0.05,VWS V14.00,2013-02-05 08:21:00,
2013-02-05 02:26:00,57.0,55.9,29.91,SSE,148,2.0,7.0,96,0.05,,SKC,0.05,VWS V14.00,2013-02-05 08:26:00,
2013-02-05 02:31:00,57.0,55.9,29.91,SSE,147,2.0,7.0,96,0.05,,SKC,0.05,VWS V14.00,2013-02-05 08:31:00,
2013-02-05 02:36:00,57.0,55.9,29.91,SSE,147,2.0,7.0,96,0.05,,SKC,0.05,VWS V14.00,2013-02-05 08:36:00,
2013-02-05 02:41:00,57.0,55.9,29.91,SSE,147,0.0,7.0,96,0.05,,SKC,0.05,VWS V14.00,2013-02-05 08:41:00,
2013-02-05 02:46:00,57.0,56.2,29.91,SSE,147,0.0,7.0,97,0.05,,SKC,0.05,VWS V14.00,2013-02-05 08:46:00,
2013-02-05 02:51:00,57.0,56.2,29.91,SSE,147,0.0,7.0,97,0.05,,SKC,0.05,VWS V14.00,2013-02-05 08:51:00,
2013-02-05 02:56:00,57.1,56.3,29.91,SSE,147,2.0,7.0,97,0.05,,SKC,0.05,VWS V14.00,2013-02-05 08:56:00,
2013-02-05 03:01:00,57.1,56.3,29.91,SSE,147,4.0,7.0,97,0.05,,SKC,0.05,VWS V14.00,2013-02-05 09:01:00,
2013-02-05 03:06:00,57.1,56.3,29.91,SSE,147,1.0,5.0,97,0.01,,SKC,0.05,VWS V14.00,2013-02-05 09:06:00,
2013-02-05 03:11:00,57.0,56.2,29.91,SSE,147,0.0,5.0,97,0.01,,SKC,0.05,VWS V14.00,2013-02-05 09:11:00,
2013-02-05 03:16:00,57.1,56.3,29.92,SSE,147,0.0,5.0,97,0.01,,SKC,0.05,VWS V14.00,2013-02-05 09:16:00,
2013-02-05 03:21:00,57.1,56.3,29.91,SSE,147,0.0,5.0,97,0.01,,SKC,0.05,VWS V14.00,2013-02-05 09:21:00,
2013-02-05 03:26:00,57.1,56.3,29.91,SSE,147,0.0,5.0,97,0.02,,SKC,0.06,VWS V14.00,2013-02-05 09:26:00,
2013-02-05 03:31:00,57.1,56.3,29.91,SSE,147,2.0,5.0,97,0.02,,SKC,0.06,VWS V14.00,2013-02-05 09:31:00,
2013-02-05 03:36:00,57.1,56.3,29.91,SSE,147,0.0,5.0,97,0.02,,SKC,0.06,VWS V14.00,2013-02-05 09:36:00,
2013-02-05 03:41:00,57.1,56.3,29.92,SSE,147,0.0,5.0,97,0.02,,SKC,0.06,VWS V14.00,2013-02-05 09:41:00,
2013-02-05 03:46:00,57.1,56.3,29.92,SSE,147,0.0,5.0,97,0.02,,SKC,0.06,VWS V14.00,2013-02-05 09:46:00,
2013-02-05 03:51:00,57.1,56.3,29.92,SSE,147,0.0,5.0,97,0.02,,SKC,0.06,VWS V14.00,2013-02-05 09:51:00,
2013-02-05 03:56:00,57.0,56.2,29.92,SSE,147,0.0,5.0,97,0.02,,SKC,0.06,VWS V14.00,2013-02-05 09:56:00,
2013-02-05 04:01:00,57.0,56.2,29.92,SSE,147,0.0,5.0,97,0.03,,SKC,0.07,VWS V14.00,2013-02-05 10:01:00,
2013-02-05 04:06:00,57.0,56.2,29.92,SSE,147,0.0,0.0,97,0.02,,SKC,0.07,VWS V14.00,2013-02-05 10:06:00,
2013-02-05 04:11:00,57.0,56.2,29.92,SSE,147,0.0,0.0,97,0.02,,SKC,0.07,VWS V14.00,2013-02-05 10:11:00,
2013-02-05 04:16:00,57.0,56.2,29.91,SSE,147,0.0,0.0,97,0.02,,SKC,0.07,VWS V14.00,2013-02-05 10:16:00,
2013-02-05 04:21:00,57.0,56.2,29.91,SSE,147,1.0,4.0,97,0.02,,SKC,0.07,VWS V14.00,2013-02-05 10:21:00,
2013-02-05 04:26:00,57.0,56.2,29.91,SSE,147,5.0,7.0,97,0.02,,SKC,0.07,VWS V14.00,2013-02-05 10:26:00,
2013-02-05 04:31:00,57.0,56.2,29.91,SSE,154,6.0,7.0,97,0.02,,SKC,0.07,VWS V14.00,2013-02-05 10:31:00,
2013-02-05 04:36:00,56.9,56.1,29.91,SSE,161,7.0,9.0,97,0.02,,SKC,0.07,VWS V14.00,2013-02-05 10:36:00,
2013-02-05 04:41:00,56.9,56.1,29.91,SSE,161,9.0,10.0,97,0.02,,SKC,0.07,VWS V14.00,2013-02-05 10:41:00,
2013-02-05 04:46:00,56.9,56.1,29.91,SSE,155,6.0,10.0,97,0.02,,SKC,0.07,VWS V14.00,2013-02-05 10:46:00,
2013-02-05 04:51:00,56.9,56.1,29.92,SSE,157,6.0,10.0,97,0.02,,SKC,0.07,VWS V14.00,2013-02-05 10:51:00,
2013-02-05 04:56:00,56.9,56.1,29.92,SSE,164,5.0,10.0,97,0.02,,SKC,0.07,VWS V14.00,2013-02-05 10:56:00,
2013-02-05 05:01:00,56.9,56.1,29.92,SSE,165,0.0,10.0,97,0.02,,SKC,0.07,VWS V14.00,2013-02-05 11:01:00,
2013-02-05 05:06:00,56.9,56.1,29.92,SSE,164,0.0,4.0,97,0.00,,SKC,0.07,VWS V14.00,2013-02-05 11:06:00,
2013-02-05 05:11:00,56.9,56.1,29.92,SSE,163,2.0,5.0,97,0.00,,SKC,0.07,VWS V14.00,2013-02-05 11:11:00,
2013-02-05 05:16:00,56.9,56.1,29.92,SSE,163,2.0,5.0,97,0.00,,SKC,0.07,VWS V14.00,2013-02-05 11:16:00,
2013-02-05 05:21:00,56.9,56.1,29.92,SSE,150,0.0,5.0,97,0.00,,SKC,0.07,VWS V14.00,2013-02-05 11:21:00,
2013-02-05 05:26:00,56.9,56.1,29.92,SSE,150,1.0,5.0,97,0.00,,SKC,0.07,VWS V14.00,2013-02-05 11:26:00,
2013-02-05 05:31:00,56.9,56.1,29.93,SSE,150,0.0,5.0,97,0.00,,SKC,0.07,VWS V14.00,2013-02-05 11:31:00,
2013-02-05 05:36:00,56.8,56.0,29.92,SSE,150,1.0,5.0,97,0.00,,SKC,0.07,VWS V14.00,2013-02-05 11:36:00,
2013-02-05 05:41:00,56.9,56.1,29.92,SSE,150,0.0,5.0,97,0.00,,SKC,0.07,VWS V14.00,2013-02-05 11:41:00,
2013-02-05 05:46:00,56.9,56.1,29.92,SE,146,7.0,7.0,97,0.00,,SKC,0.07,VWS V14.00,2013-02-05 11:46:00,
2013-02-05 05:51:00,56.9,56.1,29.92,SE,146,4.0,7.0,97,0.00,,SKC,0.07,VWS V14.00,2013-02-05 11:51:00,
2013-02-05 05:56:00,56.9,56.1,29.92,SE,146,0.0,7.0,97,0.00,,SKC,0.07,VWS V14.00,2013-02-05 11:56:00,
2013-02-05 06:01:00,56.9,56.1,29.93,SE,146,5.0,7.0,97,0.00,,SKC,0.07,VWS V14.00,2013-02-05 12:01:00,
2013-02-05 06:06:00,56.8,56.0,29.93,SE,146,4.0,6.0,97,0.00,,SKC,0.07,VWS V14.00,2013-02-05 12:06:00,
2013-02-05 06:11:00,56.8,56.0,29.93,SE,146,2.0,6.0,97,0.00,,SKC,0.07,VWS V14.00,2013-02-05 12:11:00,
2013-02-05 06:16:00,56.8,56.0,29.93,SE,146,0.0,6.0,97,0.00,,SKC,0.07,VWS V14.00,2013-02-05 12:16:00,
2013-02-05 06:21:00,56.8,56.0,29.93,SE,146,0.0,6.0,97,0.00,,SKC,0.07,VWS V14.00,2013-02-05 12:21:00,
2013-02-05 06:26:00,56.8,56.0,29.93,SE,146,2.0,6.0,97,0.00,,SKC,0.07,VWS V14.00,2013-02-05 12:26:00,
2013-02-05 06:31:00,56.7,55.9,29.93,SE,146,0.0,6.0,97,0.00,,SKC,0.07,VWS V14.00,2013-02-05 12:31:00,
2013-02-05 06:36:00,56.7,55.9,29.94,SE,146,1.0,6.0,97,0.00,,SKC,0.07,VWS V14.00,2013-02-05 12:36:00,
2013-02-05 06:41:00,56.7,55.9,29.94,SE,146,1.0,6.0,97,0.00,,SKC,0.07,VWS V14.00,2013-02-05 12:41:00,
2013-02-05 06:46:00,56.7,55.9,29.94,SE,146,0.0,6.0,97,0.00,,SKC,0.07,VWS V14.00,2013-02-05 12:46:00,
2013-02-05 06:51:00,56.7,55.9,29.94,SE,146,0.0,6.0,97,0.00,,SKC,0.07,VWS V14.00,2013-02-05 12:51:00,
2013-02-05 06:56:00,56.7,55.9,29.94,SE,146,0.0,6.0,97,0.00,,SKC,0.07,VWS V14.00,2013-02-05 12:56:00,
2013-02-05 07:01:00,56.7,56.1,29.94,SE,146,0.0,6.0,98,0.00,,SKC,0.07,VWS V14.00,2013-02-05 13:01:00,
2013-02-05 07:06:00,56.7,56.1,29.95,SE,146,0.0,0.0,98,0.00,,SKC,0.07,VWS V14.00,2013-02-05 13:06:00,
2013-02-05 07:10:00,56.7,56.1,29.95,SE,146,0.0,0.0,98,0.00,,SKC,0.07,VWS V14.00,2013-02-05 13:10:00,
2013-02-05 07:16:00,56.7,56.1,29.95,SE,146,0.0,0.0,98,0.00,,SKC,0.07,VWS V14.00,2013-02-05 13:16:00,
2013-02-05 07:21:00,56.8,56.2,29.95,SE,146,0.0,0.0,98,0.00,,SKC,0.07,VWS V14.00,2013-02-05 13:21:00,
2013-02-05 07:26:00,56.8,56.2,29.95,SE,146,0.0,0.0,98,0.00,,SKC,0.07,VWS V14.00,2013-02-05 13:26:00,
2013-02-05 07:31:00,56.8,56.2,29.95,SE,146,0.0,2.0,98,0.00,,SKC,0.07,VWS V14.00,2013-02-05 13:31:00,
2013-02-05 07:36:00,56.9,56.3,29.95,SE,146,4.0,4.0,98,0.00,,SKC,0.07,VWS V14.00,2013-02-05 13:36:00,
2013-02-05 07:41:00,56.9,56.3,29.95,SE,146,1.0,9.0,98,0.00,,SKC,0.07,VWS V14.00,2013-02-05 13:41:00,
2013-02-05 07:46:00,56.9,56.3,29.95,ESE,123,4.0,9.0,98,0.00,,SKC,0.07,VWS V14.00,2013-02-05 13:46:00,
2013-02-05 07:51:00,56.9,56.3,29.95,ESE,123,4.0,9.0,98,0.00,,SKC,0.07,VWS V14.00,2013-02-05 13:51:00,
2013-02-05 07:56:00,57.0,56.4,29.96,ESE,123,1.0,9.0,98,0.00,,SKC,0.07,VWS V14.00,2013-02-05 13:56:00,
2013-02-05 08:01:00,57.1,56.5,29.96,ESE,123,1.0,9.0,98,0.00,,SKC,0.07,VWS V14.00,2013-02-05 14:01:00,
2013-02-05 08:06:00,57.1,56.5,29.96,SE,139,2.0,7.0,98,0.00,,SKC,0.07,VWS V14.00,2013-02-05 14:06:00,
2013-02-05 08:11:00,57.1,56.5,29.96,SE,130,6.0,8.0,98,0.00,,SKC,0.07,VWS V14.00,2013-02-05 14:11:00,
2013-02-05 08:16:00,57.1,56.5,29.96,SE,128,5.0,8.0,98,0.00,,SKC,0.07,VWS V14.00,2013-02-05 14:16:00,
2013-02-05 08:21:00,57.1,56.5,29.96,SE,128,2.0,8.0,98,0.00,,SKC,0.07,VWS V14.00,2013-02-05 14:21:00,
2013-02-05 08:26:00,57.3,56.7,29.96,SE,128,2.0,8.0,98,0.00,,SKC,0.07,VWS V14.00,2013-02-05 14:26:00,
2013-02-05 08:31:00,57.4,56.8,29.96,SE,128,2.0,8.0,98,0.00,,SKC,0.07,VWS V14.00,2013-02-05 14:31:00,
2013-02-05 08:35:00,57.5,56.9,29.96,SE,128,5.0,8.0,98,0.00,,SKC,0.07,VWS V14.00,2013-02-05 14:35:00,
2013-02-05 08:40:00,57.7,57.1,29.97,SE,128,0.0,8.0,98,0.00,,SKC,0.07,VWS V14.00,2013-02-05 14:40:00,
2013-02-05 08:45:00,57.7,57.1,29.97,SE,128,2.0,8.0,98,0.00,,SKC,0.07,VWS V14.00,2013-02-05 14:45:00,
2013-02-05 08:50:00,57.7,57.1,29.98,SE,128,0.0,8.0,98,0.00,,SKC,0.07,VWS V14.00,2013-02-05 14:50:00,
2013-02-05 08:55:00,57.7,57.1,29.98,SE,128,1.0,8.0,98,0.00,,SKC,0.07,VWS V14.00,2013-02-05 14:55:00,
2013-02-05 09:00:00,57.7,57.1,29.98,SE,128,0.0,8.0,98,0.00,,SKC,0.07,VWS V14.00,2013-02-05 15:00:00,
2013-02-05 09:05:00,57.8,57.2,29.99,SE,128,0.0,0.0,98,0.00,,SKC,0.07,VWS V14.00,2013-02-05 15:05:00,
2013-02-05 09:10:00,57.8,57.2,29.99,SE,128,0.0,0.0,98,0.00,,SKC,0.07,VWS V14.00,2013-02-05 15:10:00,
2013-02-05 09:15:00,57.9,57.3,29.99,SE,128,1.0,4.0,98,0.00,,SKC,0.07,VWS V14.00,2013-02-05 15:15:00,
2013-02-05 09:20:00,58.0,57.4,29.99,SE,128,2.0,5.0,98,0.00,,SKC,0.07,VWS V14.00,2013-02-05 15:20:00,
2013-02-05 09:25:00,58.1,57.5,30.00,SE,128,2.0,5.0,98,0.00,,SKC,0.07,VWS V14.00,2013-02-05 15:25:00,
2013-02-05 09:30:00,58.1,57.5,29.99,South,184,3.0,5.0,98,0.00,,SKC,0.07,VWS V14.00,2013-02-05 15:30:00,
2013-02-05 09:35:00,58.4,57.8,29.99,South,171,6.0,7.0,98,0.00,,SKC,0.07,VWS V14.00,2013-02-05 15:35:00,
2013-02-05 09:40:00,58.5,57.9,30.00,SSE,165,2.0,7.0,98,0.00,,SKC,0.07,VWS V14.00,2013-02-05 15:40:00,
2013-02-05 09:45:00,58.6,58.0,30.00,SSE,165,2.0,7.0,98,0.00,,SKC,0.07,VWS V14.00,2013-02-05 15:45:00,
2013-02-05 09:50:00,58.6,58.0,30.00,SSE,165,5.0,7.0,98,0.00,,SKC,0.07,VWS V14.00,2013-02-05 15:50:00,
2013-02-05 09:55:00,58.7,58.1,30.00,SSE,165,1.0,7.0,98,0.00,,SKC,0.07,VWS V14.00,2013-02-05 15:55:00,
2013-02-05 10:00:00,58.9,58.3,30.00,SSE,165,0.0,7.0,98,0.00,,SKC,0.07,VWS V14.00,2013-02-05 16:00:00,
2013-02-05 10:05:00,59.1,58.5,30.00,SSE,165,2.0,4.0,98,0.00,,SKC,0.07,VWS V14.00,2013-02-05 16:05:00,
2013-02-05 10:10:00,59.1,58.5,30.00,SSE,165,5.0,5.0,98,0.00,,SKC,0.07,VWS V14.00,2013-02-05 16:10:00,
2013-02-05 10:15:00,59.2,58.6,30.01,SSE,165,0.0,5.0,98,0.00,,SKC,0.07,VWS V14.00,2013-02-05 16:15:00,
2013-02-05 10:20:00,59.3,58.5,30.01,SSE,165,0.0,5.0,97,0.00,,SKC,0.07,VWS V14.00,2013-02-05 16:20:00,
2013-02-05 10:25:00,59.4,58.5,30.01,SSE,165,0.0,5.0,97,0.00,,SKC,0.07,VWS V14.00,2013-02-05 16:25:00,
2013-02-05 10:30:00,59.6,59.0,30.01,SSE,165,0.0,5.0,98,0.00,,SKC,0.07,VWS V14.00,2013-02-05 16:30:00,
2013-02-05 10:35:00,59.8,59.2,30.01,SSE,165,0.0,5.0,98,0.00,,SKC,0.07,VWS V14.00,2013-02-05 16:35:00,
2013-02-05 10:40:00,60.0,59.2,30.01,SSE,165,0.0,5.0,97,0.00,,SKC,0.07,VWS V14.00,2013-02-05 16:40:00,
2013-02-05 10:45:00,60.1,59.2,30.01,SSE,161,4.0,5.0,97,0.00,,SKC,0.07,VWS V14.00,2013-02-05 16:45:00,
2013-02-05 10:50:00,60.3,59.5,30.01,SSE,161,4.0,5.0,97,0.00,,SKC,0.07,VWS V14.00,2013-02-05 16:50:00,
2013-02-05 10:55:00,60.6,59.8,30.01,SSE,159,1.0,5.0,97,0.00,,SKC,0.07,VWS V14.00,2013-02-05 16:55:00,
2013-02-05 11:00:00,60.7,59.8,30.00,SSE,155,1.0,5.0,97,0.00,,SKC,0.07,VWS V14.00,2013-02-05 17:00:00,
2013-02-05 11:05:00,61.1,60.2,30.00,SE,134,4.0,6.0,97,0.00,,SKC,0.07,VWS V14.00,2013-02-05 17:05:00,
2013-02-05 11:10:00,61.3,60.4,30.00,ESE,119,1.0,6.0,97,0.00,,SKC,0.07,VWS V14.00,2013-02-05 17:10:00,
2013-02-05 11:15:00,61.5,60.3,30.00,ESE,119,1.0,6.0,96,0.00,,SKC,0.07,VWS V14.00,2013-02-05 17:15:00,
2013-02-05 11:20:00,61.7,60.5,30.00,ESE,119,1.0,6.0,96,0.00,,SKC,0.07,VWS V14.00,2013-02-05 17:20:00,
2013-02-05 11:25:00,61.9,60.5,30.00,ESE,119,0.0,6.0,95,0.00,,SKC,0.07,VWS V14.00,2013-02-05 17:25:00,
2013-02-05 11:30:00,62.2,60.8,30.00,ESE,119,1.0,6.0,95,0.00,,SKC,0.07,VWS V14.00,2013-02-05 17:30:00,
2013-02-05 11:35:00,62.6,60.8,30.00,ESE,119,4.0,6.0,94,0.00,,SKC,0.07,VWS V14.00,2013-02-05 17:35:00,
2013-02-05 11:40:00,63.0,61.2,30.00,ESE,119,4.0,6.0,94,0.00,,SKC,0.07,VWS V14.00,2013-02-05 17:40:00,
2013-02-05 11:45:00,63.4,61.3,30.00,ESE,119,4.0,6.0,93,0.00,,SKC,0.07,VWS V14.00,2013-02-05 17:45:00,
2013-02-05 11:50:00,63.3,60.9,30.00,SSE,150,4.0,6.0,92,0.00,,SKC,0.07,VWS V14.00,2013-02-05 17:50:00,
2013-02-05 11:55:00,63.4,61.0,30.00,SSE,148,1.0,6.0,92,0.00,,SKC,0.07,VWS V14.00,2013-02-05 17:55:00,
2013-02-05 12:00:00,63.6,60.9,30.00,SSE,148,0.0,6.0,91,0.00,,SKC,0.07,VWS V14.00,2013-02-05 18:00:00,
2013-02-05 12:05:00,63.9,61.2,30.00,SSE,148,2.0,2.0,91,0.00,,SKC,0.07,VWS V14.00,2013-02-05 18:05:00,
2013-02-05 12:10:00,64.1,61.4,30.00,SSE,148,2.0,4.0,91,0.00,,SKC,0.07,VWS V14.00,2013-02-05 18:10:00,
2013-02-05 12:15:00,64.1,61.4,29.99,SSE,148,0.0,5.0,91,0.00,,SKC,0.07,VWS V14.00,2013-02-05 18:15:00,
2013-02-05 12:20:00,64.1,61.1,29.99,SSE,148,0.0,5.0,90,0.00,,SKC,0.07,VWS V14.00,2013-02-05 18:20:00,
2013-02-05 12:25:00,64.2,61.2,29.99,SSE,148,1.0,5.0,90,0.00,,SKC,0.07,VWS V14.00,2013-02-05 18:25:00,
2013-02-05 12:30:00,64.3,61.3,29.99,SSE,148,2.0,5.0,90,0.00,,SKC,0.07,VWS V14.00,2013-02-05 18:30:00,
2013-02-05 12:35:00,64.6,61.6,29.99,SSE,148,1.0,5.0,90,0.00,,SKC,0.07,VWS V14.00,2013-02-05 18:35:00,
2013-02-05 12:40:00,65.1,62.4,29.99,SSE,148,0.0,5.0,91,0.00,,SKC,0.07,VWS V14.00,2013-02-05 18:40:00,
2013-02-05 12:45:00,65.5,62.2,29.98,SSE,168,2.0,6.0,89,0.00,,SKC,0.07,VWS V14.00,2013-02-05 18:45:00,
2013-02-05 12:50:00,66.0,62.3,29.98,SSE,168,0.0,6.0,88,0.00,,SKC,0.07,VWS V14.00,2013-02-05 18:50:00,
2013-02-05 12:55:00,66.2,62.2,29.98,SSE,168,2.0,6.0,87,0.00,,SKC,0.07,VWS V14.00,2013-02-05 18:55:00,
2013-02-05 13:00:00,66.2,61.9,29.98,SSE,168,0.0,6.0,86,0.00,,SKC,0.07,VWS V14.00,2013-02-05 19:00:00,
2013-02-05 13:05:00,66.3,61.7,29.98,SSE,168,0.0,1.0,85,0.00,,SKC,0.07,VWS V14.00,2013-02-05 19:05:00,
2013-02-05 13:10:00,66.4,61.8,29.98,SSE,168,0.0,2.0,85,0.00,,SKC,0.07,VWS V14.00,2013-02-05 19:10:00,
2013-02-05 13:15:00,66.7,62.0,29.98,SSE,168,1.0,2.0,85,0.00,,SKC,0.07,VWS V14.00,2013-02-05 19:15:00,
2013-02-05 13:20:00,66.8,62.2,29.98,SSE,165,5.0,5.0,85,0.00,,SKC,0.07,VWS V14.00,2013-02-05 19:20:00,
2013-02-05 13:25:00,66.7,61.7,29.97,SSE,165,0.0,5.0,84,0.00,,SKC,0.07,VWS V14.00,2013-02-05 19:25:00,
2013-02-05 13:30:00,66.7,61.7,29.97,SSE,165,1.0,5.0,84,0.00,,SKC,0.07,VWS V14.00,2013-02-05 19:30:00,
2013-02-05 13:35:00,67.0,62.3,29.97,SSE,165,1.0,5.0,85,0.00,,SKC,0.07,VWS V14.00,2013-02-05 19:35:00,
2013-02-05 13:40:00,67.1,61.8,29.97,SSE,165,0.0,5.0,83,0.00,,SKC,0.07,VWS V14.00,2013-02-05 19:40:00,
2013-02-05 13:45:00,67.4,62.4,29.97,SSE,165,2.0,5.0,84,0.00,,SKC,0.07,VWS V14.00,2013-02-05 19:45:00,
2013-02-05 13:50:00,67.9,62.5,29.96,SSE,165,0.0,5.0,83,0.00,,SKC,0.07,VWS V14.00,2013-02-05 19:50:00,
2013-02-05 13:55:00,68.3,62.6,29.96,SSE,165,2.0,5.0,82,0.00,,SKC,0.07,VWS V14.00,2013-02-05 19:55:00,
2013-02-05 14:00:00,68.2,62.5,29.96,SSE,165,2.0,5.0,82,0.00,,SKC,0.07,VWS V14.00,2013-02-05 20:00:00,
2013-02-05 14:05:00,68.2,62.8,29.96,SSE,167,4.0,5.0,83,0.00,,SKC,0.07,VWS V14.00,2013-02-05 20:05:00,
2013-02-05 14:10:00,68.3,62.9,29.96,SSE,167,1.0,5.0,83,0.00,,SKC,0.07,VWS V14.00,2013-02-05 20:10:00,
2013-02-05 14:15:00,68.6,62.9,29.95,SSE,167,4.0,5.0,82,0.00,,SKC,0.07,VWS V14.00,2013-02-05 20:15:00,
2013-02-05 14:20:00,69.2,63.1,29.95,East,82,4.0,6.0,81,0.00,,SKC,0.07,VWS V14.00,2013-02-05 20:20:00,
2013-02-05 14:25:00,69.3,62.9,29.95,NE,35,3.0,6.0,80,0.00,,SKC,0.07,VWS V14.00,2013-02-05 20:25:00,
2013-02-05 14:30:00,69.1,62.7,29.95,NNE,32,2.0,6.0,80,0.00,,SKC,0.07,VWS V14.00,2013-02-05 20:30:00,
2013-02-05 14:35:00,68.9,62.5,29.95,NNE,25,4.0,6.0,80,0.00,,SKC,0.07,VWS V14.00,2013-02-05 20:35:00,
2013-02-05 14:40:00,68.7,63.0,29.95,NNE,24,2.0,6.0,82,0.00,,SKC,0.07,VWS V14.00,2013-02-05 20:40:00,
2013-02-05 14:45:00,68.5,62.5,29.95,NNE,24,2.0,6.0,81,0.00,,SKC,0.07,VWS V14.00,2013-02-05 20:45:00,
2013-02-05 14:50:00,68.5,62.8,29.95,NNE,22,2.0,7.0,82,0.00,,SKC,0.07,VWS V14.00,2013-02-05 20:50:00,
2013-02-05 14:55:00,68.3,62.6,29.95,NNE,15,4.0,7.0,82,0.00,,SKC,0.07,VWS V14.00,2013-02-05 20:55:00,
2013-02-05 15:00:00,68.1,62.8,29.95,North,9,5.0,7.0,83,0.00,,SKC,0.07,VWS V14.00,2013-02-05 21:00:00,
2013-02-05 15:05:00,68.3,63.3,29.95,NNW,338,4.0,7.0,84,0.00,,SKC,0.07,VWS V14.00,2013-02-05 21:05:00,
2013-02-05 15:10:00,68.3,62.6,29.95,NNW,336,6.0,7.0,82,0.00,,SKC,0.07,VWS V14.00,2013-02-05 21:10:00,
2013-02-05 15:15:00,68.3,62.6,29.95,North,351,5.0,7.0,82,0.00,,SKC,0.07,VWS V14.00,2013-02-05 21:15:00,
2013-02-05 15:20:00,68.2,62.5,29.95,North,355,2.0,7.0,82,0.00,,SKC,0.07,VWS V14.00,2013-02-05 21:20:00,
2013-02-05 15:25:00,68.2,62.5,29.94,North,5,3.0,7.0,82,0.00,,SKC,0.07,VWS V14.00,2013-02-05 21:25:00,
2013-02-05 15:30:00,68.5,62.5,29.95,North,360,2.0,7.0,81,0.00,,SKC,0.07,VWS V14.00,2013-02-05 21:30:00,
2013-02-05 15:35:00,68.7,62.6,29.95,North,360,3.0,7.0,81,0.00,,SKC,0.07,VWS V14.00,2013-02-05 21:35:00,
2013-02-05 15:40:00,68.7,62.6,29.95,North,360,4.0,7.0,81,0.00,,SKC,0.07,VWS V14.00,2013-02-05 21:40:00,
2013-02-05 15:45:00,68.4,62.3,29.95,North,5,5.0,7.0,81,0.00,,SKC,0.07,VWS V14.00,2013-02-05 21:45:00,
2013-02-05 15:50:00,68.1,62.1,29.95,NNE,19,3.0,7.0,81,0.00,,SKC,0.07,VWS V14.00,2013-02-05 21:50:00,
2013-02-05 15:55:00,68.0,62.3,29.95,NNE,19,3.0,7.0,82,0.00,,SKC,0.07,VWS V14.00,2013-02-05 21:55:00,
2013-02-05 16:00:00,67.9,62.5,29.95,NNE,18,2.0,7.0,83,0.00,,SKC,0.07,VWS V14.00,2013-02-05 22:00:00,
2013-02-05 16:05:00,67.9,62.5,29.95,NNE,18,3.0,4.0,83,0.00,,SKC,0.07,VWS V14.00,2013-02-05 22:05:00,
2013-02-05 16:10:00,67.9,62.5,29.95,NNE,15,3.0,6.0,83,0.00,,SKC,0.07,VWS V14.00,2013-02-05 22:10:00,
2013-02-05 16:15:00,67.8,62.8,29.95,North,10,3.0,6.0,84,0.00,,SKC,0.07,VWS V14.00,2013-02-05 22:15:00,
2013-02-05 16:20:00,67.7,62.7,29.95,North,5,2.0,6.0,84,0.00,,SKC,0.07,VWS V14.00,2013-02-05 22:20:00,
2013-02-05 16:25:00,67.6,62.6,29.95,North,5,3.0,6.0,84,0.00,,SKC,0.07,VWS V14.00,2013-02-05 22:25:00,
2013-02-05 16:30:00,67.5,62.5,29.95,North,5,3.0,6.0,84,0.00,,SKC,0.07,VWS V14.00,2013-02-05 22:30:00,
2013-02-05 16:35:00,67.4,62.7,29.95,North,355,5.0,6.0,85,0.00,,SKC,0.07,VWS V14.00,2013-02-05 22:35:00,
2013-02-05 16:40:00,67.3,62.3,29.95,NNW,348,4.0,6.0,84,0.00,,SKC,0.07,VWS V14.00,2013-02-05 22:40:00,
2013-02-05 16:45:00,67.3,62.6,29.95,NNW,348,4.0,6.0,85,0.00,,SKC,0.07,VWS V14.00,2013-02-05 22:45:00,
2013-02-05 16:50:00,67.4,62.7,29.95,NNW,348,2.0,6.0,85,0.00,,SKC,0.07,VWS V14.00,2013-02-05 22:50:00,
2013-02-05 16:55:00,67.5,62.5,29.95,NNW,348,2.0,6.0,84,0.00,,SKC,0.07,VWS V14.00,2013-02-05 22:55:00,
2013-02-05 17:00:00,67.5,62.5,29.95,North,349,4.0,6.0,84,0.00,,SKC,0.07,VWS V14.00,2013-02-05 23:00:00,
2013-02-05 17:05:00,67.5,62.2,29.95,North,349,2.0,4.0,83,0.00,,SKC,0.07,VWS V14.00,2013-02-05 23:05:00,
2013-02-05 17:10:00,67.5,62.5,29.95,North,349,2.0,5.0,84,0.00,,SKC,0.07,VWS V14.00,2013-02-05 23:10:00,
2013-02-05 17:15:00,67.5,62.5,29.95,North,349,5.0,5.0,84,0.00,,SKC,0.07,VWS V14.00,2013-02-05 23:15:00,
2013-02-05 17:20:00,67.4,62.4,29.95,North,349,4.0,5.0,84,0.00,,SKC,0.07,VWS V14.00,2013-02-05 23:20:00,
2013-02-05 17:25:00,67.2,62.2,29.95,North,349,1.0,5.0,84,0.00,,SKC,0.07,VWS V14.00,2013-02-05 23:25:00,
2013-02-05 17:30:00,67.0,62.0,29.95,North,349,0.0,5.0,84,0.00,,SKC,0.07,VWS V14.00,2013-02-05 23:30:00,
2013-02-05 17:35:00,66.8,62.2,29.95,North,349,0.0,5.0,85,0.00,,SKC,0.07,VWS V14.00,2013-02-05 23:35:00,
2013-02-05 17:40:00,66.8,61.8,29.95,North,349,0.0,5.0,84,0.00,,SKC,0.07,VWS V14.00,2013-02-05 23:40:00,
2013-02-05 17:45:00,66.5,61.9,29.95,North,349,0.0,5.0,85,0.00,,SKC,0.07,VWS V14.00,2013-02-05 23:45:00,
2013-02-05 17:50:00,66.2,61.9,29.95,North,349,0.0,5.0,86,0.00,,SKC,0.07,VWS V14.00,2013-02-05 23:50:00,
2013-02-05 17:55:00,65.8,61.5,29.95,North,349,0.0,5.0,86,0.00,,SKC,0.07,VWS V14.00,2013-02-05 23:55:00,
2013-02-05 18:00:00,65.3,61.0,29.96,North,349,0.0,5.0,86,0.00,,SKC,0.07,VWS V14.00,2013-02-06 00:00:00,
2013-02-05 18:05:00,64.7,60.8,29.96,North,349,0.0,0.0,87,0.00,,SKC,0.07,VWS V14.00,2013-02-06 00:05:00,
2013-02-05 18:10:00,64.2,60.6,29.96,North,349,0.0,0.0,88,0.00,,SKC,0.07,VWS V14.00,2013-02-06 00:10:00,
2013-02-05 18:15:00,63.9,60.6,29.96,North,349,0.0,0.0,89,0.00,,SKC,0.07,VWS V14.00,2013-02-06 00:15:00,
2013-02-05 18:20:00,63.6,60.3,29.96,North,349,0.0,0.0,89,0.00,,SKC,0.07,VWS V14.00,2013-02-06 00:20:00,
2013-02-05 18:25:00,63.3,60.0,29.96,North,349,0.0,0.0,89,0.00,,SKC,0.07,VWS V14.00,2013-02-06 00:25:00,
2013-02-05 18:30:00,62.9,59.6,29.97,North,349,0.0,0.0,89,0.00,,SKC,0.07,VWS V14.00,2013-02-06 00:30:00,
2013-02-05 18:35:00,62.6,59.9,29.97,North,349,0.0,0.0,91,0.00,,SKC,0.07,VWS V14.00,2013-02-06 00:35:00,
2013-02-05 18:40:00,62.4,59.7,29.97,North,349,0.0,0.0,91,0.00,,SKC,0.07,VWS V14.00,2013-02-06 00:40:00,
2013-02-05 18:45:00,62.2,59.5,29.97,North,349,0.0,0.0,91,0.00,,SKC,0.07,VWS V14.00,2013-02-06 00:45:00,
2013-02-05 18:50:00,62.0,59.3,29.97,North,349,0.0,0.0,91,0.00,,SKC,0.07,VWS V14.00,2013-02-06 00:50:00,
2013-02-05 18:55:00,61.7,59.4,29.97,North,349,0.0,0.0,92,0.00,,SKC,0.07,VWS V14.00,2013-02-06 00:55:00,
2013-02-05 19:00:00,61.5,59.2,29.97,North,349,0.0,0.0,92,0.00,,SKC,0.07,VWS V14.00,2013-02-06 01:00:00,
2013-02-05 19:05:00,61.3,59.0,29.97,North,349,0.0,0.0,92,0.00,,SKC,0.07,VWS V14.00,2013-02-06 01:05:00,
2013-02-05 19:10:00,61.1,58.8,29.98,North,349,0.0,0.0,92,0.00,,SKC,0.07,VWS V14.00,2013-02-06 01:10:00,
2013-02-05 19:15:00,60.9,58.9,29.98,North,349,0.0,0.0,93,0.00,,SKC,0.07,VWS V14.00,2013-02-06 01:15:00,
2013-02-05 19:20:00,60.6,58.6,29.98,North,349,0.0,0.0,93,0.00,,SKC,0.07,VWS V14.00,2013-02-06 01:20:00,
2013-02-05 19:25:00,60.2,57.9,29.98,North,349,0.0,0.0,92,0.00,,SKC,0.07,VWS V14.00,2013-02-06 01:25:00,
2013-02-05 19:30:00,59.8,57.8,29.98,North,349,0.0,0.0,93,0.00,,SKC,0.07,VWS V14.00,2013-02-06 01:30:00,
2013-02-05 19:35:00,59.5,57.5,29.98,North,349,0.0,0.0,93,0.00,,SKC,0.07,VWS V14.00,2013-02-06 01:35:00,
2013-02-05 19:40:00,59.1,57.1,29.99,North,349,0.0,0.0,93,0.00,,SKC,0.07,VWS V14.00,2013-02-06 01:40:00,
2013-02-05 19:45:00,58.8,56.8,29.99,North,349,0.0,0.0,93,0.00,,SKC,0.07,VWS V14.00,2013-02-06 01:45:00,
2013-02-05 19:50:00,58.6,56.9,29.99,North,349,0.0,0.0,94,0.00,,SKC,0.07,VWS V14.00,2013-02-06 01:50:00,
2013-02-05 19:55:00,58.5,56.8,29.99,North,349,0.0,0.0,94,0.00,,SKC,0.07,VWS V14.00,2013-02-06 01:55:00,
2013-02-05 20:00:00,58.4,56.7,29.99,North,349,0.0,0.0,94,0.00,,SKC,0.07,VWS V14.00,2013-02-06 02:00:00,
2013-02-05 20:05:00,58.4,56.7,29.99,North,349,0.0,0.0,94,0.00,,SKC,0.07,VWS V14.00,2013-02-06 02:05:00,
2013-02-05 20:10:00,58.2,56.8,29.99,North,349,0.0,0.0,95,0.00,,SKC,0.07,VWS V14.00,2013-02-06 02:10:00,
2013-02-05 20:15:00,58.3,56.9,29.99,North,349,0.0,0.0,95,0.00,,SKC,0.07,VWS V14.00,2013-02-06 02:15:00,
2013-02-05 20:20:00,58.3,56.9,29.99,North,349,0.0,0.0,95,0.00,,SKC,0.07,VWS V14.00,2013-02-06 02:20:00,
2013-02-05 20:25:00,58.2,56.8,29.99,North,349,0.0,0.0,95,0.00,,SKC,0.07,VWS V14.00,2013-02-06 02:25:00,
2013-02-05 20:30:00,58.1,56.7,29.99,North,349,0.0,0.0,95,0.00,,SKC,0.07,VWS V14.00,2013-02-06 02:30:00,
2013-02-05 20:35:00,58.0,56.6,30.00,North,349,0.0,2.0,95,0.00,,SKC,0.07,VWS V14.00,2013-02-06 02:35:00,
2013-02-05 20:40:00,58.0,56.6,30.00,North,349,0.0,2.0,95,0.00,,SKC,0.07,VWS V14.00,2013-02-06 02:40:00,
2013-02-05 20:45:00,57.8,56.4,30.00,North,349,0.0,2.0,95,0.00,,SKC,0.07,VWS V14.00,2013-02-06 02:45:00,
2013-02-05 20:50:00,57.6,56.2,30.00,North,349,0.0,2.0,95,0.00,,SKC,0.07,VWS V14.00,2013-02-06 02:50:00,
2013-02-05 20:55:00,57.5,56.1,30.00,North,349,0.0,2.0,95,0.00,,SKC,0.07,VWS V14.00,2013-02-06 02:55:00,
2013-02-05 21:00:00,57.4,56.0,30.00,North,349,0.0,2.0,95,0.00,,SKC,0.07,VWS V14.00,2013-02-06 03:00:00,
2013-02-05 21:05:00,57.3,56.2,30.00,North,349,0.0,0.0,96,0.00,,SKC,0.07,VWS V14.00,2013-02-06 03:05:00,
2013-02-05 21:10:00,57.3,56.2,30.00,North,349,0.0,0.0,96,0.00,,SKC,0.07,VWS V14.00,2013-02-06 03:10:00,
2013-02-05 21:15:00,57.3,56.2,30.00,North,349,0.0,0.0,96,0.00,,SKC,0.07,VWS V14.00,2013-02-06 03:15:00,
2013-02-05 21:20:00,57.2,56.1,30.00,North,349,0.0,0.0,96,0.00,,SKC,0.07,VWS V14.00,2013-02-06 03:20:00,
2013-02-05 21:25:00,57.1,56.0,30.00,North,349,0.0,0.0,96,0.00,,SKC,0.07,VWS V14.00,2013-02-06 03:25:00,
2013-02-05 21:30:00,57.0,55.9,30.00,North,349,0.0,0.0,96,0.00,,SKC,0.07,VWS V14.00,2013-02-06 03:30:00,
2013-02-05 21:35:00,56.8,55.7,30.00,North,349,0.0,0.0,96,0.00,,SKC,0.07,VWS V14.00,2013-02-06 03:35:00,
2013-02-05 21:40:00,56.7,55.6,30.00,North,349,0.0,0.0,96,0.00,,SKC,0.07,VWS V14.00,2013-02-06 03:40:00,
2013-02-05 21:45:00,56.8,55.7,30.00,North,349,0.0,0.0,96,0.00,,SKC,0.07,VWS V14.00,2013-02-06 03:45:00,
2013-02-05 21:50:00,56.7,55.6,30.01,North,349,0.0,0.0,96,0.00,,SKC,0.07,VWS V14.00,2013-02-06 03:50:00,
2013-02-05 21:55:00,56.5,55.4,30.01,North,349,0.0,0.0,96,0.00,,SKC,0.07,VWS V14.00,2013-02-06 03:55:00,
2013-02-05 22:00:00,56.2,54.8,30.01,North,349,0.0,0.0,95,0.00,,SKC,0.07,VWS V14.00,2013-02-06 04:00:00,
2013-02-05 22:05:00,56.1,55.0,30.01,North,349,0.0,0.0,96,0.00,,SKC,0.07,VWS V14.00,2013-02-06 04:05:00,
2013-02-05 22:10:00,56.1,55.0,30.01,North,349,0.0,0.0,96,0.00,,SKC,0.07,VWS V14.00,2013-02-06 04:10:00,
2013-02-05 22:15:00,56.0,54.9,30.01,North,349,0.0,0.0,96,0.00,,SKC,0.07,VWS V14.00,2013-02-06 04:15:00,
2013-02-05 22:20:00,56.0,54.9,30.01,North,349,0.0,0.0,96,0.00,,SKC,0.07,VWS V14.00,2013-02-06 04:20:00,
2013-02-05 22:25:00,56.1,55.0,30.01,North,349,0.0,0.0,96,0.00,,SKC,0.07,VWS V14.00,2013-02-06 04:25:00,
2013-02-05 22:30:00,56.0,54.9,30.01,North,349,0.0,0.0,96,0.00,,SKC,0.07,VWS V14.00,2013-02-06 04:30:00,
2013-02-05 22:35:00,55.9,54.8,30.01,North,349,0.0,0.0,96,0.00,,SKC,0.07,VWS V14.00,2013-02-06 04:35:00,
2013-02-05 22:40:00,55.7,54.6,30.02,North,349,0.0,0.0,96,0.00,,SKC,0.07,VWS V14.00,2013-02-06 04:40:00,
2013-02-05 22:45:00,55.6,54.5,30.02,North,349,0.0,0.0,96,0.00,,SKC,0.07,VWS V14.00,2013-02-06 04:45:00,
2013-02-05 22:50:00,55.5,54.4,30.02,North,349,0.0,0.0,96,0.00,,SKC,0.07,VWS V14.00,2013-02-06 04:50:00,
2013-02-05 22:55:00,55.5,54.4,30.02,North,349,0.0,0.0,96,0.00,,SKC,0.07,VWS V14.00,2013-02-06 04:55:00,
2013-02-05 23:00:00,55.5,54.7,30.02,North,349,0.0,0.0,97,0.00,,SKC,0.07,VWS V14.00,2013-02-06 05:00:00,
2013-02-05 23:05:00,55.3,54.2,30.02,North,349,0.0,0.0,96,0.00,,SKC,0.07,VWS V14.00,2013-02-06 05:05:00,
2013-02-05 23:10:00,55.0,53.9,30.02,North,349,0.0,0.0,96,0.00,,SKC,0.07,VWS V14.00,2013-02-06 05:10:00,
2013-02-05 23:15:00,54.7,53.6,30.02,North,349,0.0,0.0,96,0.00,,SKC,0.07,VWS V14.00,2013-02-06 05:15:00,
2013-02-05 23:20:00,54.4,53.3,30.02,North,349,0.0,0.0,96,0.00,,SKC,0.07,VWS V14.00,2013-02-06 05:20:00,
2013-02-05 23:25:00,54.1,53.0,30.02,North,349,0.0,0.0,96,0.00,,SKC,0.07,VWS V14.00,2013-02-06 05:25:00,
2013-02-05 23:30:00,53.9,52.8,30.02,North,349,0.0,0.0,96,0.00,,SKC,0.07,VWS V14.00,2013-02-06 05:30:00,
2013-02-05 23:35:00,53.8,52.7,30.02,North,349,0.0,0.0,96,0.00,,SKC,0.07,VWS V14.00,2013-02-06 05:35:00,
2013-02-05 23:40:00,53.8,53.0,30.02,North,349,0.0,0.0,97,0.00,,SKC,0.07,VWS V14.00,2013-02-06 05:40:00,
2013-02-05 23:45:00,54.0,53.2,30.02,North,349,0.0,0.0,97,0.00,,SKC,0.07,VWS V14.00,2013-02-06 05:45:00,
2013-02-05 23:50:00,54.2,53.4,30.02,North,349,0.0,0.0,97,0.00,,SKC,0.07,VWS V14.00,2013-02-06 05:50:00,
2013-02-05 23:55:00,54.4,53.6,30.02,North,349,0.0,0.0,97,0.00,,SKC,0.07,VWS V14.00,2013-02-06 05:55:00,